ATLAS H R/B

Satellite information

Favourite Embed

Satellite Type and Status

ROCKET BODYIN ORBIT

Key statistics

Satellite ATLAS H R/B at a glance.

Uptime

14093

Days in orbit

Revolutions

≈ 13.5

Per day

Orbit

LEO

Low Earth Orbit

Inclination

63.3

Latest

Satellite identification and parameters

Extended collection of information and parameters for ATLAS H R/B.

Object identification

Identified? True

Debris? False

Object name: ATLAS H R/B

International designator: 1987-043B

Object number (NORAD): 17998

Object ID (CCSDS): 17998

Country: UNITED STATES OF AMERICA (US)

Current information (Y/N): Y

RCS size: MEDIUM

Orbital parameters

Period: 106.598 minutes

Inclination: 63.3194 deg

SMA: 7447.208 km

Apoapsis: 1599.919 km

Periapsis: 538.226 km

RAAN: 0.1252 deg

Eccentricy: 0.07128128

Argument of periapsis: 114.9173 deg

Mean anomaly: 252.7638 deg

Mean motion: 13.50866938 rev/day

Mean motion (dot): 0.0000197 rev/day2

B* drag term: 0.00062456109 1/REarth

Two-line elements (TLE)

Creation date: Dec. 14, 2025, 3:07 a.m.

Reference frame: TEME

Reference center: EARTH

Epoch: Dec. 13, 2025, 10:59 a.m. UTC

TLE line 0: 0 ATLAS H R/B

TLE line 1: 1 17998U 87043B 25347.45786999 .00001970 00000-0 62456-3 0 9997

TLE line 2: 2 17998 63.3194 0.1252 0712813 114.9173 252.7638 13.50866938326160

Live tracking on map

Real-time ground track for satellite ATLAS H R/B.

In-orbit conjunctions

A list of the most updated potential collisions computed for object ATLAS H R/B.

Target Orbit TCA Probability of collision Miss distance Type
FENGYUN 1C DEB SSO 2025-04-26 05:00:27 0.0001204857 988.0 (m) DEBRIS
COSMOS 718 LEO 2025-04-19 01:54:17 0.0001066698 156.0 (m) PAYLOAD
BREEZE-KM R/B SSO 2025-03-23 08:45:30 0.01384258 23.0 (m) ROCKET BODY

Associated space launch

The Parcae satellites were passive ELINT satellites. MSD satellites were dispensers of triplets of ocean surveillance satellites.

ATLAS H R/B was lifted into orbit during the mission ‘Atlas H | Parcae 9A,B,C & MSD 9’, on board a Atlas H space rocket.

The launch took place on May 15, 1987, 3:45 p.m. from Space Launch Complex 3E.

For more information about the launch, click the button.

Launch to space Atlas H | Parcae 9A,B,C & MSD 9
Atlas H | Parcae 9A,B,C & MSD 9

Agency: N/A

Status: Launch Successful

Launch date: May 15, 1987, 3:45 p.m. UTC

Rocket: Atlas H

Launch pad: Space Launch Complex 3E

Location: Vandenberg SFB, CA, USA

...

Latest news about this satellite

There are no fresh news available about this satellite. Check back as we update our databases every day.


Newsletter sign-up

Weekly statistics, charts and insights to help you stay on top of the space industry.